FW6299 Weather Reports


Display with metric or nautical units.
time (UTC)temp
F
wind
direction
speed
MPH
gust
MPH
rain 1hr
in
rain 24hr
in
rain mn
in
humidity
%
barometer
mb
20260906070031 72 135 0.0 0.0 0.00 0.00 0.00 89 1010.8
20260906064531 72 135 0.0 1.0 0.00 0.00 0.00 89 1011.1
20260906063033 73 135 0.0 0.0 0.00 0.00 0.00 88 1011.1
20260906061537 73 135 0.0 2.0 0.00 0.00 0.00 89 1011.2
20260906060037 73 131 0.0 0.0 0.00 0.00 0.00 88 1011.3
20260906054553 73 131 0.0 0.0 0.00 0.00 0.00 87 1011.4
20260906053039 73 131 0.0 3.0 0.00 0.00 0.00 87 1011.4
20260906051603 73 194 0.0 0.0 0.00 0.00 0.00 87 1011.4
20260906050049 73 220 0.0 0.0 0.00 0.00 0.00 87 1011.5
20260906044554 73 220 0.0 0.0 0.00 0.00 0.00 86 1011.7
20260906043057 73 220 0.0 0.0 0.00 0.00 0.00 86 1011.4
20260906041557 74 220 0.0 0.0 0.00 0.00 0.00 85 1011.4
20260906040134 74 220 0.0 0.0 0.00 0.00 0.00 84 1011.6
20260906034605 75 220 0.0 0.0 0.00 0.00 0.00 83 1011.8
20260906033012 75 220 0.0 0.0 0.00 0.00 0.00 82 1011.7
20260906031559 75 219 0.0 0.0 0.00 0.00 0.00 83 1011.8
20260906031510 75 219 0.0 0.0 0.00 0.00 0.00 83 1011.7
20260906030045 76 221 0.0 0.0 0.00 0.00 0.00 83 1011.6
20260906024552 76 221 0.0 0.0 0.00 0.00 0.00 82 1011.7
20260906023034 76 221 0.0 0.0 0.00 0.00 0.00 82 1011.7
20260906021536 75 221 0.0 0.0 0.00 0.00 0.00 82 1011.9
20260906020019 75 221 0.0 0.0 0.00 0.00 0.00 82 1011.7
20260906014519 76 221 0.0 0.0 0.00 0.00 0.00 82 1011.7
20260906013023 77 212 0.0 0.0 0.00 0.00 0.00 80 1011.4
20260906011527 78 211 0.0 0.0 0.00 0.00 0.00 78 1011.1
20260906010031 78 211 0.0 0.0 0.00 0.00 0.00 76 1010.9
20260906004515 79 210 0.0 0.0 0.00 0.00 0.00 75 1010.7
20260906003011 80 210 0.0 0.0 0.00 0.00 0.00 75 1010.8
20260906001608 80 213 0.0 0.0 0.00 0.00 0.00 75 1010.8
20260906001501 80 213 0.0 0.0 0.00 0.00 0.00 75 1010.8
20260906000057 81 213 0.0 1.0 0.00 0.00 0.00 73 1010.8
20260905234548 81 213 0.0 0.0 0.00 0.00 0.00 72 1010.7
20260905233059 82 213 0.0 2.0 0.00 0.00 0.00 73 1010.8
20260905231555 82 215 0.0 4.0 0.00 0.00 0.00 71 1010.7
20260905230043 82 121 0.0 2.0 0.00 0.00 0.00 72 1010.4
20260905224606 83 113 0.0 1.0 0.00 0.00 0.00 70 1010.7
20260905223025 85 113 0.0 3.0 0.00 0.00 0.00 68 1010.6
20260905221510 85 194 0.0 5.0 0.00 0.00 0.00 65 1010.5
20260905220015 86 207 3.0 5.0 0.00 0.00 0.00 64 1010.7
20260905214521 85 200 2.0 7.0 0.00 0.00 0.00 66 1010.8
20260905213021 85 203 3.0 10.0 0.00 0.00 0.00 66 1010.8
20260905211526 87 194 4.0 9.0 0.00 0.00 0.00 63 1011.0
20260905210018 88 175 3.0 6.0 0.00 0.00 0.00 60 1011.0
20260905204510 87 78 1.0 3.0 0.00 0.00 0.00 61 1011.1
20260905203011 87 86 0.0 3.0 0.00 0.00 0.00 62 1011.2
20260905201518 86 119 1.0 6.0 0.00 0.00 0.00 62 1011.2
20260905200103 87 61 0.0 3.0 0.00 0.00 0.00 62 1011.5
20260905200000 87 63 0.0 3.0 0.00 0.00 0.00 63 1011.5
20260905194552 85 72 1.0 5.0 0.00 0.00 0.00 62 1011.7
20260905193038 85 95 0.0 8.0 0.00 0.00 0.00 64 1011.9
20260905191536 85 172 3.0 9.0 0.00 0.00 0.00 64 1012.0
20260905190039 85 95 2.0 7.0 0.00 0.00 0.00 64 1012.3
20260905184552 84 96 1.0 8.0 0.00 0.00 0.00 65 1012.3
20260905183031 83 88 4.0 9.0 0.00 0.00 0.00 65 1012.6
20260905181526 83 83 1.0 7.0 0.00 0.00 0.00 68 1013.0
20260905180037 83 95 4.0 9.0 0.00 0.00 0.00 65 1013.3
20260905174526 82 107 4.0 9.0 0.00 0.00 0.00 71 1013.5
20260905173030 80 102 3.0 8.0 0.00 0.00 0.00 74 1013.7
20260905171530 81 96 5.0 11.0 0.00 0.00 0.00 69 1014.1
20260905170043 82 74 3.0 11.0 0.00 0.00 0.00 70 1014.2
20260905164538 82 34 3.0 11.0 0.00 0.00 0.00 74 1013.8
20260905163046 81 17 3.0 9.0 0.00 0.00 0.00 75 1013.5
20260905161601 82 47 2.0 10.0 0.00 0.00 0.00 74 1013.5
20260905160048 85 355 1.0 4.0 0.00 0.00 0.00 73 1014.0
20260905154604 87 321 0.0 4.0 0.00 0.00 0.00 71 1013.7
20260905153044 87 250 0.0 5.0 0.00 0.00 0.00 71 1013.5
20260905151542 86 234 0.0 3.0 0.00 0.00 0.00 72 1013.2
20260905150040 84 219 0.0 4.0 0.00 0.00 0.00 75 1013.3
20260905144536 83 218 0.0 2.0 0.00 0.00 0.00 77 1013.3
20260905143034 81 217 0.0 4.0 0.00 0.00 0.00 79 1013.6
20260905141536 81 204 0.0 0.0 0.00 0.00 0.00 79 1013.6
20260905140026 80 203 0.0 0.0 0.00 0.00 0.00 80 1013.5
20260905134524 79 210 0.0 0.0 0.00 0.00 0.00 81 1013.5
20260905133022 78 211 0.0 0.0 0.00 0.00 0.00 83 1013.6
20260905131515 77 101 0.0 0.0 0.00 0.00 0.00 84 1013.9
20260905130017 77 84 0.0 0.0 0.00 0.00 0.00 84 1014.0
20260905124518 76 108 0.0 0.0 0.00 0.00 0.00 86 1014.0
20260905123016 75 102 0.0 2.0 0.00 0.00 0.00 88 1014.2
20260905121515 73 125 0.0 0.0 0.00 0.00 0.00 90 1013.9
20260905120019 72 105 0.0 0.0 0.00 0.00 0.00 92 1013.7
20260905114519 71 114 0.0 0.0 0.00 0.00 0.00 93 1013.4
20260905113015 71 114 0.0 0.0 0.00 0.00 0.00 93 1013.3
20260905111507 71 114 0.0 0.0 0.00 0.00 0.00 93 1013.1
20260905110007 71 111 0.0 0.0 0.00 0.00 0.00 93 1013.0
20260905104507 71 107 0.0 0.0 0.00 0.00 0.00 94 1012.6
20260905103013 71 107 0.0 0.0 0.00 0.00 0.00 93 1012.6
20260905101512 71 107 0.0 0.0 0.00 0.00 0.00 92 1012.5
20260905100031 71 107 0.0 0.0 0.00 0.00 0.00 92 1012.6
20260905094520 71 107 0.0 0.0 0.00 0.00 0.00 91 1012.4
20260905093025 71 107 0.0 0.0 0.00 0.00 0.00 91 1012.3
20260905091529 71 107 0.0 0.0 0.00 0.00 0.00 90 1012.2
20260905090033 72 107 0.0 0.0 0.00 0.00 0.00 90 1012.3
20260905084559 72 107 0.0 0.0 0.00 0.00 0.00 89 1012.5
20260905084504 72 107 0.0 0.0 0.00 0.00 0.00 89 1012.5
20260905083112 72 107 0.0 0.0 0.00 0.00 0.00 89 1012.5
20260905081553 73 107 0.0 0.0 0.00 0.00 0.00 88 1012.6
20260905080057 73 107 0.0 0.0 0.00 0.00 0.00 88 1012.7
20260905080004 73 107 0.0 0.0 0.00 0.00 0.00 88 1012.7
20260905074558 73 107 0.0 0.0 0.00 0.00 0.00 87 1012.8
20260905073043 73 107 0.0 0.0 0.00 0.00 0.00 87 1012.9
20260905071545 73 107 0.0 0.0 0.00 0.00 0.00 86 1013.1